Regional Weather Roundup
Issued by NWS Charleston, WV

Home | Current Version | Previous Version | Graphics & Text | Print | Product List | Glossary Off
Versions: 1 2 3 4 5 6 7 8 9 10 11 12 13 14 15 16 17 18 19 20 21 22 23 24 25 26 27 28 29 30 31 32 33 34 35 36 37 38 39 40 41 42 43 44 45 46 47 48 49 50

000
ASUS41 KRLX 021910
RWRRLX
West Virginia Regional Weather Roundup
National Weather Service Charleston WV
300 PM EDT SUN AUG 02 2015

Note: "fair" indicates few or no clouds below 12,000 feet with no
significant weather and/or obstructions to visibility.

WVZ003-022000-
Northern Panhandle of West Virginia

CITY           SKY/WX    TMP DP  RH WIND       PRES   REMARKS
WHEELING       MOSUNNY   83  61  47 W10G18    29.95F
$$

WVZ009-022000-
Northwest West Virginia

CITY           SKY/WX    TMP DP  RH WIND       PRES   REMARKS
PARKERSBURG    MOSUNNY   86  59  39 W9        29.99F
$$

WVZ006-022000-
Western West Virginia

CITY           SKY/WX    TMP DP  RH WIND       PRES   REMARKS
HUNTINGTON     MOSUNNY   85  57  38 S6        29.99S
$$

WVZ015-022000-
West Central West Virginia

CITY           SKY/WX    TMP DP  RH WIND       PRES   REMARKS
CHARLESTON     MOSUNNY   83  55  38 VRB6      30.00F
$$

WVZ022-031-022000-
North Central West Virginia

CITY           SKY/WX    TMP DP  RH WIND       PRES   REMARKS
CLARKSBURG     MOSUNNY   83  58  42 VRB6      30.00S
MORGANTOWN     MOSUNNY   84  57  39 S8        29.99F
$$

WVZ025-035-042-045-022000-
Southern West Virginia

CITY           SKY/WX    TMP DP  RH WIND       PRES   REMARKS
BECKLEY        PTSUNNY   77  54  44 VRB3      30.08F
LOGAN            N/A     81  61  50 CALM      30.00F
BLUEFIELD      MOSUNNY   78  49  35 VRB3      30.11F
LEWISBURG      MOSUNNY   78  55  45 S3        30.08F
$$

WVZ047-022000-
Northern Mountains of West Virginia

CITY           SKY/WX    TMP DP  RH WIND       PRES   REMARKS
ELKINS         SUNNY     80  55  42 CALM      30.05S
$$

WVZ052-022000-
Eastern Panhandle of West Virginia

CITY           SKY/WX    TMP DP  RH WIND       PRES   REMARKS
MARTINSBURG    MOSUNNY   86  56  35 SW9       29.96S
PETERSBURG     MOSUNNY  N/A N/A N/A SE7       29.99S
$$


USA.gov is the U.S. government's official web portal to all federal, state and local government web resources and services.